sat.trackr.live / text

‹ back to catalog

STARLINK-4448

NORAD 53504 · 2022-099AR

PAYLOAD ACTIVE UNKNOWN

§ Identity

Operator
Country
US
Launch date
2022-08-12
Launch site
AFWTR
Launch vehicle
Mass (kg)
RCS (m²)

Purposes: comms

External: N2YO · Heavens-Above · Gunter

§ Orbital elements

Epoch: 2026-05-25T04:00:03.998880Z

Period
93.25 min
Inclination
97.6026°
Eccentricity
0.0001467
Mean motion
15.44257038 rev/d
Perigee alt
432.6 km
Apogee alt
434.6 km
Semi-major
6,811.7 km
B*
1.4534e-2
RAAN
267.2238°
Arg perigee
97.7792°
Mean anomaly
88.2571°
Rev number
582

§ Raw data

STARLINK-44481 53504U 22099AR  26145.16671295  .00722788  00000+0  14534-1 0  99952 53504  97.6026 267.2238 0001467  97.7792  88.2571 15.44257038  5823

JSON: /api/v1/satellites/53504 · /tle

For live sub-satellite position, see the globe view (requires WebGL).

§ Visibility from observer

Set your observer location to see the next 7 days of passes ≥ 10°. The values pass through the URL so the page stays shareable.

No JS? Fill the form by hand. The geolocation button needs JavaScript.